Regional Weather Roundup
Issued by NWS

Home | Current Version | Previous Version | Text Only | Print | Product List | Glossary Off
Versions: 1 2 3 4 5 6 7 8 9 10 11 12 13 14 15 16 17 18 19 20 21 22 23 24 25 26 27 28 29 30 31 32 33 34 35 36 37 38 39 40 41 42 43 44 45 46 47 48 49 50

000
ASUS43 KBIS 270010
RWRND

NORTH DAKOTA REGIONAL WEATHER ROUNDUP
NATIONAL WEATHER SERVICE BISMARCK ND
700 PM CDT SUN MAR 26 2017

NOTE: "FAIR" INDICATES FEW OR NO CLOUDS BELOW 12,000 FEET WITH NO
SIGNIFICANT WEATHER AND/OR OBSTRUCTIONS TO VISIBILITY.


NDZ001>003-009>011-017-270100-
NORTHWEST NORTH DAKOTA

CITY           SKY/WX    TMP DP  RH WIND       PRES   REMARKS
WILLISTON      FAIR      59  27  29 W13       29.85S
6HR MIN TEMP:  58; 6HR MAX TEMP:  65;

MINOT          FAIR      55  40  56 E14       29.86S
MINOT AFB      SUNNY     49  42  74 SE12      29.85S
$$

NDZ018>021-031>035-040>046-270100-
SOUTHWEST NORTH DAKOTA

CITY           SKY/WX    TMP DP  RH WIND       PRES   REMARKS
BISMARCK       FAIR      57  36  45 E9        29.89F
6HR MIN TEMP:  54; 6HR MAX TEMP:  63;

DICKINSON      CLOUDY    56  24  29 N5        29.85S
GARRISON         N/A     55  35  47 SE3       29.86S
6HR MIN TEMP:  54; 6HR MAX TEMP:  60;

HETTINGER ARPT MOSUNNY   57  32  38 SE6       29.89S
$$

NDZ004>008-012>016-024-026-027-054-270100-
NORTHEAST NORTH DAKOTA

CITY           SKY/WX    TMP DP  RH WIND       PRES   REMARKS
GRAND FORKS    PTCLDY    46  41  82 S5        29.94R
GRND FRKS AFB  CLEAR     46  42  85 SE3       29.94S
DEVILS LAKE    FAIR      48  40  73 N5        29.92S
$$

NDZ022-023-025-028>030-036>039-047>053-270100-
SOUTHEAST NORTH DAKOTA

CITY           SKY/WX    TMP DP  RH WIND       PRES   REMARKS
FARGO          PTCLDY    44  38  79 W3        29.94S
6HR MIN TEMP:  42; 6HR MAX TEMP:  47;

JAMESTOWN      FAIR      51  39  63 CALM      29.91S
$$




USA.gov is the U.S. government's official web portal to all federal, state and local government web resources and services.